Time,TemperatureF,DewpointF,PressureIn,WindDirection,WindDirectionDegrees,WindSpeedMPH,WindSpeedGustMPH,Humidity,HourlyPrecipIn,Conditions,Clouds,dailyrainin,SoftwareType,DateUTC
2013-07-11 00:17:00,72.7,60.6,30.04,ESE,112,0.0,0.0,66,0.00,,,0.00,open2300-1.11,2013-07-11 05:17:00,
2013-07-11 01:17:00,71.4,60.3,30.05,ENE,67,0.0,0.0,68,0.00,,,0.00,open2300-1.11,2013-07-11 06:17:00,
2013-07-11 02:17:00,70.9,58.9,30.04,ESE,112,0.0,0.7,66,0.00,,,0.00,open2300-1.11,2013-07-11 07:17:00,
2013-07-11 03:17:00,70.2,58.2,30.04,ENE,67,0.0,2.0,66,0.00,,,0.00,open2300-1.11,2013-07-11 08:17:00,
2013-07-11 04:17:00,70.0,57.6,30.03,East,90,2.5,2.5,65,0.00,,,0.00,open2300-1.11,2013-07-11 09:17:00,
2013-07-11 05:17:00,69.1,56.8,30.04,ESE,112,0.0,3.1,65,0.00,,,0.00,open2300-1.11,2013-07-11 10:17:00,
2013-07-11 06:17:00,68.2,55.9,30.04,ESE,112,0.0,2.5,65,0.00,,,0.00,open2300-1.11,2013-07-11 11:17:00,
2013-07-11 07:17:00,68.4,56.1,30.04,East,90,0.7,4.2,65,0.00,,,0.00,open2300-1.11,2013-07-11 12:17:00,
2013-07-11 08:17:00,72.1,57.9,30.06,SE,135,1.6,4.9,61,0.00,,,0.00,open2300-1.11,2013-07-11 13:17:00,
2013-07-11 09:17:00,75.4,59.6,30.10,ENE,67,0.0,6.7,58,0.00,,,0.00,open2300-1.11,2013-07-11 14:17:00,
2013-07-11 11:17:00,84.4,62.0,30.07,SSE,157,2.9,8.1,47,0.00,,,0.00,open2300-1.11,2013-07-11 16:17:00,
2013-07-11 12:17:00,87.8,62.5,30.04,ENE,67,0.0,5.6,43,0.00,,,0.00,open2300-1.11,2013-07-11 17:17:00,
2013-07-11 13:17:00,90.3,63.4,30.04,ENE,67,0.4,6.7,41,0.00,,,0.00,open2300-1.11,2013-07-11 18:17:00,
2013-07-11 15:17:00,93.9,63.5,30.02,SE,135,0.0,5.8,37,0.00,,,0.00,open2300-1.11,2013-07-11 20:17:00,
2013-07-11 16:17:00,93.0,62.7,30.00,SW,225,1.8,7.8,37,0.00,,,0.00,open2300-1.11,2013-07-11 21:17:00,
2013-07-11 17:17:00,89.4,61.1,29.98,South,180,4.5,6.9,39,0.00,,,0.00,open2300-1.11,2013-07-11 22:17:00,
2013-07-11 18:17:00,87.4,61.6,29.96,SE,135,0.0,9.4,42,0.00,,,0.00,open2300-1.11,2013-07-11 23:17:00,
2013-07-11 19:17:00,85.6,61.2,29.95,ENE,67,1.1,6.5,44,0.00,,,0.00,open2300-1.11,2013-07-12 00:17:00,
2013-07-11 20:17:00,83.1,60.7,29.95,ESE,112,0.0,9.2,47,0.00,,,0.00,open2300-1.11,2013-07-12 01:17:00,
2013-07-11 21:17:00,79.9,60.1,29.94,ESE,112,0.0,6.3,51,0.00,,,0.00,open2300-1.11,2013-07-12 02:17:00,
2013-07-11 22:17:00,77.4,59.4,29.96,South,180,4.9,5.6,54,0.00,,,0.00,open2300-1.11,2013-07-12 03:17:00,
2013-07-11 23:17:00,75.6,58.2,29.97,East,90,2.5,5.8,55,0.00,,,0.00,open2300-1.11,2013-07-12 04:17:00,